www.pogodaiklimat.ru

АРХИВ ПОГОДЫ в Хантингтоне

Время (UTC), дата Ветер
(напр.,м/с)
 
Видим.   Явления Облачность Т
(С)
Тd
(С)
f
(%)
Тe
(С)
Тes
(С)
Комфортность

P
(гПа)

Po
(гПа)
Тmin
(С)
Tmax
(С)
R
(мм)
SD
(см)
02:51 19.05 В  16 км    ясно  +21.1  +17.2  78  +25  +25  комфорт  1013.1  983.8         
03:51 19.05 В  16 км    ясно  +21.0  +17.0  78  +25  +25  комфорт  1013.0  983.8         
04:51 19.05 В  16 км    2/0 2550 м
[средняя] 
+20.0  +17.2  84  +23  +23  комфорт  1013.0  983.8         
05:51 19.05 В  16 км    ясно  +19.4  +17.2  87  +22  +22  комфорт  1012.5  983.2         
06:51 19.05 ЮВ  16 км    2/0 3600 м
[средняя] 
+21.0  +17.0  78  +26  +26  душно  1012.5  983.2         
07:51 19.05 ЮВ  16 км    2/0 3000 м
[средняя] 
+19.0  +17.0  88  +21  +21  комфорт  1012.7  983.5         
08:51 19.05 ЮВ  16 км    2/0 3300 м
[средняя] 
+21.0  +17.0  78  +25  +25  комфорт  1013.2  983.8         
09:51 19.05 Ю  16 км    8/0 3600 м
[средняя] 
+20.6  +16.1  75  +25  +25  комфорт  1013.7  984.5         
10:51 19.05 ЮВ  16 км    ясно  +22.0  +17.0  73  +26  +27  душно  1014.0  984.8  +19.4       
11:51 19.05 Ю  16 км    8/2 1800 м
[средняя] 
+21.7  +16.7  73  +26  +26  душно  1014.6  985.5         
12:51 19.05 Ю  16 км    10/10 1410 м  +21.7  +17.2  76  +26  +26  душно  1014.9  985.5         
13:29 19.05 Ю  3 км  сильный дождь, дымка  10/10 870 м  +20.0  +17.8  87  +23  +23  комфорт    985.8         
13:39 19.05 нст  5 км  дождь, дымка  10/8 1110 м
[средняя] 
+20.6  +18.3  87  +25  +26  комфорт    985.8         
13:51 19.05 Ю  8 км  дымка  10/10 1110 м  +21.1  +18.9  87  +25  +25  комфорт    985.5      1.5   
14:51 19.05 нст  16 км    10/8 1080 м
[средняя] 
+22.2  +18.9  82  +28  +28  душно  1014.9  985.5         
15:51 19.05 ЮЗ  4
{8} 
16 км    8/8 780 м  +24.0  +18.0  69  +28  +30  душно  1014.5  985.1         
16:51 19.05 ЮЗ  6
{10} 
16 км    8/8 840 м  +25.0  +18.3  66  +29  +31  душно  1013.9  984.5  +20.0  +25.0     
17:51 19.05 ЮЗ  16 км    8/8 960 м  +26.7  +18.9  62  +32  +34  очень
душно 
1013.3  984.2         
18:51 19.05 ЮЗ  4
{8} 
16 км    5/5 1050 м  +28.0  +19.0  58  +33  +39  очень
душно 
1012.7  983.5         
19:36 19.05 ЮЗ  16 км  гроза  2/0 3000 м
[средняя] 
+26.0  +18.0  61  +30  +38  душно    983.8         
19:51 19.05 ЮЗ  4
{8} 
2 км  гроза, слабый дождь  8/8 1950 м
[средняя] 
+25.0  +18.3  66  +29  +31  душно  1013.2           
19:59 19.05 З  7
{13} 
2 км  гроза, дождь  10/5 930 м
[средняя] 
+22.8  +18.3  76  +28  +29  душно             
20:15 19.05 З  6 км  гроза, слабый дождь  10/8 1050 м
[средняя] 
+20.0  +17.8  87  +23  +23  комфорт    984.5         
20:19 19.05 З  4 км  сильный дождь, дымка  10/8 930 м
[средняя] 
+20.0  +17.8  87  +23  +23  комфорт    984.5         
20:51 19.05 ЮЗ  16 км    8/2 1140 м
[средняя] 
+21.1  +18.9  87  +25  +29  комфорт  1013.4  984.2         
21:51 19.05 ЮЗ  16 км    ясно  +22.8  +18.9  79  +29  +35  очень
душно 
1012.9  983.5         
22:51 19.05 Ю  16 км    2/2 1950 м  +22.0  +19.0  83  +27  +29  душно  1013.4  984.2  +20.0    4.6   
23:51 19.05 ЮЗ  16 км    5/0 2700 м
[средняя] 
+21.7  +18.3  81  +26  +27  душно  1014.5  985.1         
00:51 20.05 Ю  16 км    10/0 2100 м
[средняя] 
+21.7  +18.3  81  +26  +26  душно  1015.3  985.8         
01:51 20.05 ЮЗ  16 км    ясно  +20.6  +18.3  87  +25  +25  комфорт  1015.8  986.5         
02:51 20.05 Ю  16 км    ясно  +20.0  +18.3  90  +23  +23  комфорт  1016.4  986.8         
03:51 20.05 Ю  16 км    ясно  +20.0  +17.8  87  +23  +23  комфорт  1016.0  986.8         
04:51 20.05 Ю  16 км    ясно  +19.4  +17.8  90  +22  +22  комфорт  1016.2  986.8    +22.2     
05:51 20.05 Ю  16 км    ясно  +18.9  +17.8  93  +21  +21  комфорт  1016.1  986.8         
06:51 20.05 Ю  16 км    ясно  +18.9  +17.2  90  +21  +21  комфорт  1016.3  987.1         
07:51 20.05 ЮЗ  14 км    ясно  +18.9  +17.2  90  +21  +21  комфорт  1016.9  987.4         
08:51 20.05 ЮЗ  14 км    ясно  +18.3  +17.2  93  +19  +19    1017.4  987.8         
09:51 20.05 штиль  10 км  дымка  ясно  +18.3  +17.2  93  +19  +19    1017.6  988.1         
10:51 20.05 Ю  13 км    ясно  +19.4  +17.8  90  +22  +22  комфорт  1018.0  988.4         
11:51 20.05 ЮЗ  16 км    ясно  +21.1  +18.9  87  +25  +27  комфорт  1018.4  988.8         
12:51 20.05 ЮЗ  16 км    ясно  +23.3  +19.4  79  +30  +34  очень
душно 
1018.6  989.1         
13:51 20.05 нст  16 км    ясно  +25.0  +20.0  74  +31  +41  очень
душно 
1018.8  989.4         
14:51 20.05 З  16 км    5/5 750 м  +26.7  +18.9  62  +32  +38  очень
душно 
1019.0  989.4         
15:51 20.05 нст  16 км    5/5 1020 м  +28.0  +18.0  55  +33  +40  очень
душно 
1018.9  989.4         
16:51 20.05 ЮЗ  16 км    5/5 1500 м  +28.0  +18.0  55  +33  +38  очень
душно 
1018.8  989.4  +19.4       
17:51 20.05 ЮЗ  16 км    8/8 1410 м  +29.4  +18.3  51  +34  +38  очень
душно 
1018.3  989.1         
18:51 20.05 З  16 км    8/8 1500 м  +30.0  +17.0  46  +34  +36  очень
душно 
1018.0  988.8         
19:51 20.05 З  16 км    2/2 1500 м  +30.0  +17.8  48  +34  +42  очень
душно 
1017.2  987.8         

 

Местоположение метеостанции Tri-State Airport: широта 38.3650 долгота -82.5550 высота над уровнем моря 252 м.

В архиве по умолчанию представлена погода в Хантингтоне за последние 1-2 суток. Обновление информации о фактической погоде в базе происходит ежечасно! Архивные данные за месяц целиком и за предыдущие месяцы Вы можете получить, выбрав интересующий диапазон дат из раскрывающегося списка и нажав кнопку "Ввод!".

Внимание! Архив погоды МЕТАР в базе сайта в настоящее время начинается c 1 января 2013 г. Нет смысла пытаться выбрать более раннюю дату.

Внимание! Время в таблицах - всемирное. Для получения местного времени необходимо прибавить поправку, которая в Хантингтоне равна -5 ч.

Ветер - указаны скорость ветра в м/с и направление, откуда дует ветер: С - северный, СВ - северо-восточный, В - восточный, ЮВ - юго-восточный, Ю - южный, ЮЗ - юго-западный, З - западный, СЗ - северо-западный.
Видимость - горизонтальная дальность видимости в метрах или километрах. При видимости от 1 до 10 км при отсутствии осадков обычно наблюдается дымка, при ухудшении видимости до 1 км и менее - туман. В сухую погоду видимость может ухудшаться дымом, пылью или мглою.
Атмосферные явления - указаны явления, наблюдавшиеся в указанный момент времени.
Облачность - указаны через наклонную черту верхняя и нижняя облачность в баллах и высота нижней границы облаков в метрах. Внимание: облачность, как и прочие метеорологические величины в США измеряются автоматическими метеостанциями. Указанные значения в баллах носят условный характер и показывают процент времени, в течение которого, в среднем, лазерный луч высотомера отражался от облаков обратно.
T - Температура воздуха - температура, измеренная на высоте 2 м над землей.
Td - Температура точки росы - температура, при понижении до которой содержащийся в воздухе водяной пар достигнет насыщения.
f - Относительная влажность воздуха - влажноcть воздуха, измеренная на высоте 2 м над землей.
Te - Эффективная температура - температура, которую ощущает одетый по сезону человек в тени. Характеристика душности погоды. При расчете учитывается влияние влажности воздуха и скорости ветра на теплоощущения человека.
Tes - Эффективная температура на солнце - температура, которую ощущает человек, с поправкой на солнечный нагрев. Характеристика знойности погоды. Зависит от высоты солнца над горизонтом, облачности и скорости ветра. Ночью, в пасмурную погоду, а также при ветре 12 м/с и более поправка равна нулю.
P - Атмосферное давление - приведенное к уровню моря атмосферное давление.
Po - Атмосферное давление - измеренное на уровне метеостанции атмосферное давление.
Tmin - Минимальная температура - минимум температуры воздуха на высоте 2 м над землей.
Tmax - Максимальная температура - максимум температуры воздуха на высоте 2 м над землей.
R - Количество осадков - Количество выпавших осадков за 3 или 6 часов, мм.
SD - Снежный покров - Высота снежного покрова, см.